{"data":{"norad_id":51635,"epoch":"2026-09-19T13:27:40.491648Z","epoch_age_seconds":106815,"freshness":"FRESH","line1":"1 51635U 22012P   26262.56088532  .00000059  00000+0  13162-3 0  9991","line2":"2 51635  87.8903  17.4810 0001918 103.4306 256.7035 13.10370062221684","mean_motion":13.10370062,"eccentricity":0.0001918,"inclination_deg":87.8903,"raan_deg":17.481,"arg_perigee_deg":103.4306,"mean_anomaly_deg":256.7035,"bstar":0.00013162,"rev_number":22168,"period_min":109.89262054737,"perigee_km":1220.2701489615,"apogee_km":1223.1854571,"semimajor_km":7599.8648030307,"source":"CELESTRAK","updated_at":"2026-09-20T09:00:44.710327Z"}}